Regional Weather Roundup
Issued by NWS

Home | Current Version | Previous Version | Text Only | Print | Product List | Glossary On
Versions: 1 2 3 4 5 6 7 8 9 10 11 12 13 14 15 16 17 18 19 20 21 22 23 24 25 26 27 28 29 30 31 32 33 34 35 36 37 38 39 40 41 42 43 44 45 46 47 48 49 50
000
ASUS44 KOUN 270010
RWROK

WEATHER ROUNDUP FOR OKLAHOMA
NATIONAL WEATHER SERVICE NORMAN OK
600 PM CST WED NOV 26 2014

NOTE: "FAIR" INDICATES FEW OR NO CLOUDS BELOW 12,000 FEET WITH NO
      SIGNIFICANT WEATHER AND/OR OBSTRUCTIONS TO VISIBILITY.

OKZ001>007-009>012-014-015-017-270100-
NORTHWEST OKLAHOMA AND THE PANHANDLE

CITY           SKY/WX    TMP DP  RH WIND       PRES   REMARKS
GAGE           CLEAR     41  20  43 N8        30.32R
6HR MIN TEMP:  41; 6HR MAX TEMP:  52;

ENID/WOODRING  PTCLDY    43  25  49 N12G17    30.31R
$$

OKZ016-021>023-033>039-044-045-270100-
SOUTHWEST OKLAHOMA

CITY           SKY/WX    TMP DP  RH WIND       PRES   REMARKS
LAWTON/REGL    CLEAR     52  27  38 NW6       30.29R
6HR MIN TEMP:  52; 6HR MAX TEMP:  60;

LAWTON/FT SILL CLEAR     51  28  39 NW3       30.28R
FREDERICK      CLEAR     49  34  56 N7        30.27R
CLINTON        CLEAR     46  23  40 N7        30.31R
HOBART         CLEAR     46  28  49 N5        30.30R
ALTUS AFB      CLEAR     46  29  50 N5        30.30R
$$

OKZ018>020-024>031-270100-
CENTRAL OKLAHOMA

CITY           SKY/WX    TMP DP  RH WIND       PRES   REMARKS
OKLAHOMA CITY  MOCLDY    49  22  34 N15       30.27R
6HR MIN TEMP:  49; 6HR MAX TEMP:  57;

OKC/WILEY POST CLEAR     48  21  34 N14G21    30.28R
OKC/TINKER AFB CLEAR     48  24  38 N13G21    30.26R
STILLWATER     CLEAR     44  23  43 N12       30.30R
GUTHRIE        CLEAR     46  22  38 N9        30.30R
$$

OKZ008-013-054>072-270100-
NORTHEAST OKLAHOMA

CITY           SKY/WX    TMP DP  RH WIND       PRES   REMARKS
TULSA          PTCLDY    45  24  43 NW13      30.26R
6HR MIN TEMP:  45; 6HR MAX TEMP:  57;

TULSA/JONES    PTCLDY    46  23  40 NW12G18   30.28R
PONCA CITY     CLOUDY    44  24  45 NW13      30.30R
BARTLESVILLE   CLEAR     40  26  57 CALM      30.29R
MUSKOGEE       PTCLDY    47  26  44 NW12      30.26R
$$

OKZ032-040>043-046>053-073>077-270100-
SOUTH CENTRAL/SOUTHEAST OKLAHOMA

CITY           SKY/WX    TMP DP  RH WIND       PRES   REMARKS
ARDMORE/DWNTWN CLEAR     54  28  37 N3        30.27R
MCALESTER      PTCLDY    52  26  36 NW8       30.24R
$$



USA.gov is the U.S. government's official web portal to all federal, state and local government web resources and services.